Time,TemperatureF,DewpointF,PressureIn,WindDirection,WindDirectionDegrees,WindSpeedMPH,WindSpeedGustMPH,Humidity,HourlyPrecipIn,Conditions,Clouds,dailyrainin,SoftwareType,DateUTC
2013-03-06 00:00:00,44.6,39.5,29.62,SE,125,0.0,0.0,82,0.00,,,0.00,VWS V13.01,2013-03-06 08:00:00,
2013-03-06 00:05:00,44.6,39.5,29.62,SE,125,0.0,0.0,82,0.00,,,0.00,VWS V13.01,2013-03-06 08:05:00,
2013-03-06 00:10:00,44.6,39.5,29.62,SE,125,0.0,0.0,82,0.00,,,0.00,VWS V13.01,2013-03-06 08:10:00,
2013-03-06 00:15:00,44.6,39.8,29.62,SE,125,0.0,0.0,83,0.00,,,0.00,VWS V13.01,2013-03-06 08:15:00,
2013-03-06 00:20:00,44.6,39.8,29.62,SE,125,0.0,0.0,83,0.00,,,0.00,VWS V13.01,2013-03-06 08:20:00,
2013-03-06 00:25:00,44.6,39.8,29.62,SE,125,0.0,0.0,83,0.00,,,0.00,VWS V13.01,2013-03-06 08:25:00,
2013-03-06 00:30:00,44.6,39.8,29.62,SE,138,0.0,2.2,83,0.00,,,0.00,VWS V13.01,2013-03-06 08:30:00,
2013-03-06 00:35:00,44.6,39.8,29.62,SE,138,0.0,0.0,83,0.00,,,0.00,VWS V13.01,2013-03-06 08:35:00,
2013-03-06 00:40:00,44.6,40.1,29.62,SE,138,0.0,3.1,84,0.00,,,0.00,VWS V13.01,2013-03-06 08:40:00,
2013-03-06 00:45:00,44.6,40.1,29.62,SE,138,0.0,0.0,84,0.00,,,0.00,VWS V13.01,2013-03-06 08:45:00,
2013-03-06 00:50:00,44.6,40.1,29.62,SE,138,0.0,0.0,84,0.00,,,0.00,VWS V13.01,2013-03-06 08:50:00,
2013-03-06 00:55:00,44.6,40.1,29.62,SE,138,0.0,0.0,84,0.00,,,0.00,VWS V13.01,2013-03-06 08:55:00,
2013-03-06 01:00:00,44.6,40.1,29.62,SE,138,0.0,0.0,84,0.00,,,0.00,VWS V13.01,2013-03-06 09:00:00,
2013-03-06 01:05:00,44.6,40.1,29.62,SE,138,0.0,0.0,84,0.00,,,0.00,VWS V13.01,2013-03-06 09:05:00,
2013-03-06 01:10:00,44.6,40.1,29.62,SE,138,0.0,0.0,84,0.00,,,0.00,VWS V13.01,2013-03-06 09:10:00,
2013-03-06 01:15:00,44.6,40.1,29.62,SE,138,0.0,3.6,84,0.00,,,0.00,VWS V13.01,2013-03-06 09:15:00,
2013-03-06 01:20:00,44.6,40.1,29.62,SE,138,0.0,0.0,84,0.00,,,0.00,VWS V13.01,2013-03-06 09:20:00,
2013-03-06 01:25:00,44.4,40.2,29.62,SE,138,0.0,0.0,85,0.00,,,0.00,VWS V13.01,2013-03-06 09:25:00,
2013-03-06 01:30:00,44.4,40.2,29.62,SE,138,0.0,0.0,85,0.00,,,0.00,VWS V13.01,2013-03-06 09:30:00,
2013-03-06 01:35:00,44.4,40.2,29.62,SE,138,0.0,0.0,85,0.00,,,0.00,VWS V13.01,2013-03-06 09:35:00,
2013-03-06 01:40:00,44.4,40.2,29.62,SE,138,0.0,0.0,85,0.00,,,0.00,VWS V13.01,2013-03-06 09:40:00,
2013-03-06 01:45:00,44.4,40.2,29.62,SE,138,0.0,0.0,85,0.00,,,0.00,VWS V13.01,2013-03-06 09:45:00,
2013-03-06 01:50:00,44.2,40.0,29.62,SE,138,0.0,0.0,85,0.00,,,0.00,VWS V13.01,2013-03-06 09:50:00,
2013-03-06 01:55:00,44.2,40.0,29.62,SE,138,0.0,0.0,85,0.00,,,0.00,VWS V13.01,2013-03-06 09:55:00,
2013-03-06 02:00:00,44.2,40.0,29.62,SE,138,0.0,0.0,85,0.00,,,0.00,VWS V13.01,2013-03-06 10:00:00,
2013-03-06 02:05:00,44.2,40.0,29.59,SE,138,0.0,0.0,85,0.00,,,0.00,VWS V13.01,2013-03-06 10:05:00,
2013-03-06 02:10:00,44.1,39.8,29.59,SE,138,0.0,0.0,85,0.00,,,0.00,VWS V13.01,2013-03-06 10:10:00,
2013-03-06 02:15:00,44.1,39.8,29.59,SE,138,0.0,0.0,85,0.00,,,0.00,VWS V13.01,2013-03-06 10:15:00,
2013-03-06 02:20:00,44.1,39.8,29.59,SE,138,0.0,0.0,85,0.00,,,0.00,VWS V13.01,2013-03-06 10:20:00,
2013-03-06 02:25:00,44.1,39.8,29.59,SE,138,0.0,0.0,85,0.00,,,0.00,VWS V13.01,2013-03-06 10:25:00,
2013-03-06 02:30:00,44.1,39.8,29.59,SE,138,0.0,0.0,85,0.00,,,0.00,VWS V13.01,2013-03-06 10:30:00,
2013-03-06 02:35:00,44.1,40.2,29.59,South,170,2.7,2.7,86,0.00,,,0.00,VWS V13.01,2013-03-06 10:35:00,
2013-03-06 02:40:00,43.9,39.7,29.59,South,170,3.1,3.1,85,0.00,,,0.00,VWS V13.01,2013-03-06 10:40:00,
2013-03-06 02:45:00,43.7,39.5,29.59,South,170,2.2,2.7,85,0.00,,,0.00,VWS V13.01,2013-03-06 10:45:00,
2013-03-06 02:50:00,43.5,39.3,29.59,South,170,0.0,0.0,85,0.00,,,0.00,VWS V13.01,2013-03-06 10:50:00,
2013-03-06 02:55:00,43.5,39.3,29.59,South,170,0.0,0.0,85,0.00,,,0.00,VWS V13.01,2013-03-06 10:55:00,
2013-03-06 03:00:00,43.5,39.3,29.59,South,170,0.0,0.0,85,0.00,,,0.00,VWS V13.01,2013-03-06 11:00:00,
2013-03-06 03:05:00,43.3,39.1,29.59,South,170,0.0,3.1,85,0.00,,,0.00,VWS V13.01,2013-03-06 11:05:00,
2013-03-06 03:10:00,43.3,39.1,29.59,South,170,0.0,0.0,85,0.00,,,0.00,VWS V13.01,2013-03-06 11:10:00,
2013-03-06 03:15:00,43.3,39.1,29.59,South,170,0.0,0.0,85,0.00,,,0.00,VWS V13.01,2013-03-06 11:15:00,
2013-03-06 03:20:00,43.2,39.0,29.59,South,170,0.0,0.0,85,0.00,,,0.00,VWS V13.01,2013-03-06 11:20:00,
2013-03-06 03:25:00,43.2,39.0,29.59,South,170,0.0,0.0,85,0.00,,,0.00,VWS V13.01,2013-03-06 11:25:00,
2013-03-06 03:30:00,43.2,39.0,29.59,South,170,0.0,0.0,85,0.00,,,0.00,VWS V13.01,2013-03-06 11:30:00,
2013-03-06 03:35:00,43.2,38.7,29.59,South,170,0.0,0.0,84,0.00,,,0.00,VWS V13.01,2013-03-06 11:35:00,
2013-03-06 03:40:00,43.2,38.7,29.59,South,170,0.0,0.0,84,0.00,,,0.00,VWS V13.01,2013-03-06 11:40:00,
2013-03-06 03:45:00,43.2,38.7,29.59,South,170,4.0,4.0,84,0.00,,,0.00,VWS V13.01,2013-03-06 11:45:00,
2013-03-06 03:50:00,43.2,38.7,29.59,South,170,0.0,0.0,84,0.00,,,0.00,VWS V13.01,2013-03-06 11:50:00,
2013-03-06 03:55:00,43.2,38.7,29.59,South,170,0.0,0.0,84,0.00,,,0.00,VWS V13.01,2013-03-06 11:55:00,
2013-03-06 04:00:00,43.2,38.7,29.59,South,170,0.0,0.0,84,0.00,,,0.00,VWS V13.01,2013-03-06 12:00:00,
2013-03-06 04:05:00,43.2,38.7,29.59,South,170,0.0,0.0,84,0.00,,,0.00,VWS V13.01,2013-03-06 12:05:00,
2013-03-06 04:10:00,43.2,38.7,29.59,South,170,0.0,0.0,84,0.00,,,0.00,VWS V13.01,2013-03-06 12:10:00,
2013-03-06 04:15:00,43.2,38.7,29.59,South,170,0.0,0.0,84,0.00,,,0.00,VWS V13.01,2013-03-06 12:15:00,
2013-03-06 04:20:00,43.2,38.4,29.59,South,170,0.0,0.0,83,0.00,,,0.00,VWS V13.01,2013-03-06 12:20:00,
2013-03-06 04:25:00,43.2,38.7,29.59,South,170,0.0,0.0,84,0.00,,,0.00,VWS V13.01,2013-03-06 12:25:00,
2013-03-06 04:30:00,43.2,38.4,29.59,South,170,0.0,0.0,83,0.00,,,0.00,VWS V13.01,2013-03-06 12:30:00,
2013-03-06 04:35:00,43.2,38.4,29.59,South,170,0.0,0.0,83,0.00,,,0.00,VWS V13.01,2013-03-06 12:35:00,
2013-03-06 04:40:00,43.2,38.4,29.59,South,170,0.0,0.0,83,0.00,,,0.00,VWS V13.01,2013-03-06 12:40:00,
2013-03-06 04:45:00,43.2,38.4,29.59,South,170,0.0,0.0,83,0.00,,,0.00,VWS V13.01,2013-03-06 12:45:00,
2013-03-06 04:50:00,43.2,38.4,29.59,South,170,0.0,0.0,83,0.00,,,0.00,VWS V13.01,2013-03-06 12:50:00,
2013-03-06 04:55:00,43.0,38.2,29.59,South,170,0.0,0.0,83,0.00,,,0.00,VWS V13.01,2013-03-06 12:55:00,
2013-03-06 05:00:00,43.0,38.2,29.59,South,170,0.0,0.0,83,0.00,,,0.00,VWS V13.01,2013-03-06 13:00:00,
2013-03-06 05:05:00,43.0,38.2,29.59,South,170,0.0,0.0,83,0.00,,,0.00,VWS V13.01,2013-03-06 13:05:00,
2013-03-06 05:10:00,43.0,38.2,29.59,South,170,0.0,0.0,83,0.00,,,0.00,VWS V13.01,2013-03-06 13:10:00,
2013-03-06 05:15:00,43.0,38.2,29.59,South,170,0.0,0.0,83,0.00,,,0.00,VWS V13.01,2013-03-06 13:15:00,
2013-03-06 05:20:00,43.0,38.2,29.59,South,170,0.0,0.0,83,0.00,,,0.00,VWS V13.01,2013-03-06 13:20:00,
2013-03-06 05:25:00,43.0,38.2,29.59,South,170,0.0,4.9,83,0.00,,,0.00,VWS V13.01,2013-03-06 13:25:00,
2013-03-06 05:30:00,43.0,38.2,29.59,South,170,0.0,0.0,83,0.00,,,0.00,VWS V13.01,2013-03-06 13:30:00,
2013-03-06 05:35:00,42.8,38.3,29.59,South,170,0.0,0.0,84,0.00,,,0.00,VWS V13.01,2013-03-06 13:35:00,
2013-03-06 05:40:00,42.8,38.3,29.59,South,170,0.0,0.0,84,0.00,,,0.00,VWS V13.01,2013-03-06 13:40:00,
2013-03-06 05:45:00,42.8,38.3,29.59,South,170,0.0,0.0,84,0.00,,,0.00,VWS V13.01,2013-03-06 13:45:00,
2013-03-06 05:50:00,42.8,38.3,29.59,South,170,0.0,0.0,84,0.00,,,0.00,VWS V13.01,2013-03-06 13:50:00,
2013-03-06 05:55:00,42.8,38.3,29.59,South,170,0.0,0.0,84,0.00,,,0.00,VWS V13.01,2013-03-06 13:55:00,
2013-03-06 06:00:00,42.8,38.3,29.59,South,170,0.0,3.1,84,0.00,,,0.00,VWS V13.01,2013-03-06 14:00:00,
2013-03-06 06:05:00,42.8,38.3,29.59,South,170,0.0,0.0,84,0.00,,,0.00,VWS V13.01,2013-03-06 14:05:00,
2013-03-06 06:10:00,42.8,38.3,29.59,South,170,0.0,0.0,84,0.00,,,0.00,VWS V13.01,2013-03-06 14:10:00,
2013-03-06 06:15:00,42.8,38.3,29.59,South,170,0.0,2.2,84,0.00,,,0.00,VWS V13.01,2013-03-06 14:15:00,
2013-03-06 06:20:00,42.6,38.1,29.59,South,170,0.0,0.0,84,0.00,,,0.00,VWS V13.01,2013-03-06 14:20:00,
2013-03-06 06:25:00,42.6,38.1,29.59,South,170,0.0,0.0,84,0.00,,,0.00,VWS V13.01,2013-03-06 14:25:00,
2013-03-06 06:30:00,42.6,38.1,29.59,South,171,3.6,5.4,84,0.00,,,0.00,VWS V13.01,2013-03-06 14:30:00,
2013-03-06 06:35:00,42.6,38.1,29.59,South,171,0.0,0.0,84,0.00,,,0.00,VWS V13.01,2013-03-06 14:35:00,
2013-03-06 06:40:00,42.4,38.0,29.59,South,171,2.7,3.1,84,0.00,,,0.00,VWS V13.01,2013-03-06 14:40:00,
2013-03-06 06:45:00,42.6,38.1,29.59,South,171,0.0,4.0,84,0.00,,,0.00,VWS V13.01,2013-03-06 14:45:00,
2013-03-06 06:50:00,42.6,38.1,29.59,South,171,2.7,3.6,84,0.00,,,0.00,VWS V13.01,2013-03-06 14:50:00,
2013-03-06 06:55:00,42.6,38.1,29.59,South,171,0.0,0.0,84,0.00,,,0.00,VWS V13.01,2013-03-06 14:55:00,
2013-03-06 07:00:00,42.6,38.1,29.59,South,171,3.1,3.1,84,0.00,,,0.00,VWS V13.01,2013-03-06 15:00:00,
2013-03-06 07:05:00,42.6,38.1,29.62,South,171,0.0,0.0,84,0.00,,,0.00,VWS V13.01,2013-03-06 15:05:00,
2013-03-06 07:10:00,42.6,37.8,29.62,South,171,2.7,3.1,83,0.00,,,0.00,VWS V13.01,2013-03-06 15:10:00,
2013-03-06 07:15:00,42.6,37.8,29.62,South,171,0.0,0.0,83,0.00,,,0.00,VWS V13.01,2013-03-06 15:15:00,
2013-03-06 07:20:00,42.6,37.8,29.62,South,171,0.0,0.0,83,0.00,,,0.00,VWS V13.01,2013-03-06 15:20:00,
2013-03-06 07:25:00,42.6,37.8,29.62,South,171,2.2,2.2,83,0.00,,,0.00,VWS V13.01,2013-03-06 15:25:00,
2013-03-06 07:30:00,42.6,37.8,29.62,South,171,0.0,0.0,83,0.00,,,0.00,VWS V13.01,2013-03-06 15:30:00,
2013-03-06 07:35:00,42.6,37.8,29.62,South,171,0.0,2.7,83,0.00,,,0.00,VWS V13.01,2013-03-06 15:35:00,
2013-03-06 07:40:00,42.6,37.8,29.62,South,171,2.2,4.0,83,0.00,,,0.00,VWS V13.01,2013-03-06 15:40:00,
2013-03-06 07:45:00,42.8,38.0,29.62,South,171,0.0,0.0,83,0.00,,,0.00,VWS V13.01,2013-03-06 15:45:00,
2013-03-06 07:50:00,42.8,38.0,29.62,South,171,0.0,2.2,83,0.00,,,0.00,VWS V13.01,2013-03-06 15:50:00,
2013-03-06 07:55:00,43.0,38.2,29.62,South,181,0.0,3.6,83,0.00,,,0.00,VWS V13.01,2013-03-06 15:55:00,
2013-03-06 08:00:00,43.0,38.2,29.62,South,181,0.0,2.7,83,0.00,,,0.00,VWS V13.01,2013-03-06 16:00:00,
2013-03-06 08:05:00,43.0,38.2,29.62,WSW,257,3.6,4.0,83,0.00,,,0.00,VWS V13.01,2013-03-06 16:05:00,
2013-03-06 08:10:00,43.0,38.2,29.62,SSW,212,4.9,4.9,83,0.00,,,0.00,VWS V13.01,2013-03-06 16:10:00,
2013-03-06 08:15:00,43.0,38.2,29.62,SSW,196,4.0,4.0,83,0.00,,,0.00,VWS V13.01,2013-03-06 16:15:00,
2013-03-06 08:20:00,43.0,38.2,29.65,SW,226,5.4,5.4,83,0.00,,,0.00,VWS V13.01,2013-03-06 16:20:00,
2013-03-06 08:25:00,43.0,38.2,29.65,NNW,330,0.0,4.9,83,0.00,,,0.00,VWS V13.01,2013-03-06 16:25:00,
2013-03-06 08:30:00,43.0,38.2,29.65,NNW,330,0.0,3.1,83,0.00,,,0.00,VWS V13.01,2013-03-06 16:30:00,
2013-03-06 08:35:00,43.0,38.2,29.65,West,259,4.0,4.0,83,0.00,,,0.00,VWS V13.01,2013-03-06 16:35:00,
2013-03-06 08:40:00,43.0,38.2,29.65,WNW,298,3.6,5.4,83,0.00,,,0.00,VWS V13.01,2013-03-06 16:40:00,
2013-03-06 08:45:00,43.0,38.2,29.65,SW,223,0.0,4.9,83,0.00,,,0.00,VWS V13.01,2013-03-06 16:45:00,
2013-03-06 08:50:00,43.0,38.2,29.65,SW,215,0.0,2.2,83,0.00,,,0.00,VWS V13.01,2013-03-06 16:50:00,
2013-03-06 08:55:00,43.2,38.4,29.65,SSW,207,3.1,3.6,83,0.00,,,0.00,VWS V13.01,2013-03-06 16:55:00,
2013-03-06 09:00:00,43.2,38.4,29.65,SSW,212,0.0,2.7,83,0.00,,,0.00,VWS V13.01,2013-03-06 17:00:00,
2013-03-06 09:05:00,43.2,38.4,29.68,SW,216,3.6,3.6,83,0.00,,,0.00,VWS V13.01,2013-03-06 17:05:00,
2013-03-06 09:10:00,43.3,38.5,29.68,SW,216,0.0,2.2,83,0.00,,,0.00,VWS V13.01,2013-03-06 17:10:00,
2013-03-06 09:15:00,43.3,38.8,29.68,West,265,3.1,4.5,84,0.00,,,0.00,VWS V13.01,2013-03-06 17:15:00,
2013-03-06 09:20:00,43.5,39.0,29.68,West,265,0.0,0.0,84,0.00,,,0.00,VWS V13.01,2013-03-06 17:20:00,
2013-03-06 09:25:00,43.7,39.2,29.68,SSW,199,2.7,3.1,84,0.00,,,0.00,VWS V13.01,2013-03-06 17:25:00,
2013-03-06 09:30:00,43.7,39.2,29.68,SSW,206,2.2,2.7,84,0.00,,,0.00,VWS V13.01,2013-03-06 17:30:00,
2013-03-06 09:35:00,43.7,38.9,29.68,West,276,2.2,3.1,83,0.00,,,0.00,VWS V13.01,2013-03-06 17:35:00,
2013-03-06 09:40:00,44.1,39.2,29.68,NW,314,0.0,0.0,83,0.00,,,0.00,VWS V13.01,2013-03-06 17:40:00,
2013-03-06 09:45:00,44.1,39.2,29.68,West,261,2.2,2.2,83,0.00,,,0.00,VWS V13.01,2013-03-06 17:45:00,
2013-03-06 09:50:00,44.2,39.4,29.71,SSW,209,0.0,2.2,83,0.00,,,0.00,VWS V13.01,2013-03-06 17:50:00,
2013-03-06 09:55:00,44.2,39.4,29.71,SSW,208,2.7,2.7,83,0.00,,,0.00,VWS V13.01,2013-03-06 17:55:00,
2013-03-06 10:00:00,44.2,39.1,29.71,SSW,208,3.6,4.0,82,0.00,,,0.00,VWS V13.01,2013-03-06 18:00:00,
2013-03-06 10:05:00,44.4,39.3,29.71,SW,216,4.0,4.0,82,0.00,,,0.00,VWS V13.01,2013-03-06 18:05:00,
2013-03-06 10:10:00,44.6,39.5,29.71,SW,214,0.0,5.4,82,0.00,,,0.00,VWS V13.01,2013-03-06 18:10:00,
2013-03-06 10:15:00,45.0,39.8,29.71,NW,315,3.6,4.9,82,0.00,,,0.00,VWS V13.01,2013-03-06 18:15:00,
2013-03-06 10:20:00,45.1,40.0,29.71,WNW,295,2.7,4.0,82,0.00,,,0.00,VWS V13.01,2013-03-06 18:20:00,
2013-03-06 10:25:00,45.5,40.3,29.71,WNW,284,3.6,4.9,82,0.00,,,0.00,VWS V13.01,2013-03-06 18:25:00,
2013-03-06 10:30:00,45.9,40.7,29.71,WNW,298,3.1,3.1,82,0.00,,,0.00,VWS V13.01,2013-03-06 18:30:00,
2013-03-06 10:35:00,46.0,40.9,29.71,WNW,303,2.7,3.1,82,0.00,,,0.00,VWS V13.01,2013-03-06 18:35:00,
2013-03-06 10:39:00,46.4,41.2,29.71,WNW,284,2.2,2.7,82,0.00,,,0.00,VWS V13.01,2013-03-06 18:39:00,
2013-03-06 10:44:00,46.6,41.4,29.71,WNW,300,2.2,4.0,82,0.00,,,0.00,VWS V13.01,2013-03-06 18:44:00,
2013-03-06 10:49:00,47.1,42.2,29.74,WSW,252,2.7,2.7,83,0.00,,,0.00,VWS V13.01,2013-03-06 18:49:00,
2013-03-06 10:54:00,47.1,41.9,29.74,West,274,5.4,6.3,82,0.00,,,0.00,VWS V13.01,2013-03-06 18:54:00,
2013-03-06 10:59:00,47.1,41.3,29.74,WNW,297,3.6,3.6,80,0.00,,,0.00,VWS V13.01,2013-03-06 18:59:00,
2013-03-06 11:04:00,47.3,40.8,29.74,NW,304,3.6,4.0,78,0.00,,,0.00,VWS V13.01,2013-03-06 19:04:00,
2013-03-06 11:09:00,47.1,39.6,29.74,WNW,298,8.1,10.5,75,0.00,,,0.00,VWS V13.01,2013-03-06 19:09:00,
2013-03-06 11:14:00,47.3,39.1,29.74,WSW,252,4.0,5.4,73,0.00,,,0.00,VWS V13.01,2013-03-06 19:14:00,
2013-03-06 11:19:00,47.3,38.7,29.74,WNW,282,2.7,3.6,72,0.00,,,0.00,VWS V13.01,2013-03-06 19:19:00,
2013-03-06 11:24:00,47.5,38.6,29.74,West,275,7.6,10.1,71,0.00,,,0.00,VWS V13.01,2013-03-06 19:24:00,
2013-03-06 11:29:00,47.5,38.2,29.74,WNW,282,6.3,6.3,70,0.00,,,0.00,VWS V13.01,2013-03-06 19:29:00,
2013-03-06 11:34:00,47.8,38.9,29.77,West,278,2.7,4.9,71,0.00,,,0.00,VWS V13.01,2013-03-06 19:34:00,
2013-03-06 11:39:00,47.8,38.5,29.77,SSW,211,5.8,10.5,70,0.00,,,0.00,VWS V13.01,2013-03-06 19:39:00,
2013-03-06 11:44:00,47.7,36.5,29.77,NNW,338,4.0,9.6,65,0.00,,,0.00,VWS V13.01,2013-03-06 19:44:00,
2013-03-06 11:49:00,48.0,36.4,29.77,NW,312,4.0,5.8,64,0.00,,,0.00,VWS V13.01,2013-03-06 19:49:00,
2013-03-06 11:54:00,48.2,35.4,29.77,NW,319,2.7,5.4,61,0.00,,,0.00,VWS V13.01,2013-03-06 19:54:00,
2013-03-06 11:59:00,48.4,35.2,29.77,WNW,290,5.8,8.3,60,0.00,,,0.00,VWS V13.01,2013-03-06 19:59:00,
2013-03-06 12:04:00,48.4,33.9,29.77,West,268,6.3,6.3,57,0.00,,,0.00,VWS V13.01,2013-03-06 20:04:00,
2013-03-06 12:09:00,48.6,33.6,29.77,SSW,197,3.1,8.3,56,0.00,,,0.00,VWS V13.01,2013-03-06 20:09:00,
2013-03-06 12:14:00,48.0,32.2,29.77,NW,304,7.6,13.2,54,0.00,,,0.00,VWS V13.01,2013-03-06 20:14:00,
2013-03-06 12:19:00,47.7,31.4,29.77,West,270,8.3,11.9,53,0.00,,,0.00,VWS V13.01,2013-03-06 20:19:00,
2013-03-06 12:24:00,47.8,32.0,29.77,NNW,345,3.1,8.3,54,0.00,,,0.00,VWS V13.01,2013-03-06 20:24:00,
2013-03-06 12:29:00,47.8,32.5,29.77,NW,310,3.6,5.8,55,0.00,,,0.00,VWS V13.01,2013-03-06 20:29:00,
2013-03-06 12:34:00,47.7,32.3,29.80,West,271,3.1,4.9,55,0.00,,,0.00,VWS V13.01,2013-03-06 20:34:00,
2013-03-06 12:39:00,47.5,32.6,29.80,South,183,5.8,10.5,56,0.00,,,0.00,VWS V13.01,2013-03-06 20:39:00,
2013-03-06 12:44:00,47.8,33.8,29.80,WNW,298,6.3,6.3,58,0.00,,,0.00,VWS V13.01,2013-03-06 20:44:00,
2013-03-06 12:49:00,48.6,34.5,29.80,West,280,4.9,8.7,58,0.00,,,0.00,VWS V13.01,2013-03-06 20:49:00,
2013-03-06 12:54:00,49.1,34.5,29.80,NNW,346,4.0,5.8,57,0.00,,,0.00,VWS V13.01,2013-03-06 20:54:00,
2013-03-06 12:59:00,49.6,34.2,29.80,NW,313,5.4,5.4,55,0.00,,,0.00,VWS V13.01,2013-03-06 20:59:00,
2013-03-06 13:04:00,50.2,34.2,29.80,NNW,336,5.8,5.8,54,0.00,,,0.00,VWS V13.01,2013-03-06 21:04:00,
2013-03-06 13:09:00,50.7,32.8,29.80,NNW,331,7.2,7.6,50,0.00,,,0.00,VWS V13.01,2013-03-06 21:09:00,
2013-03-06 13:14:00,50.4,29.8,29.80,WNW,288,6.3,8.7,45,0.00,,,0.00,VWS V13.01,2013-03-06 21:14:00,
2013-03-06 13:19:00,49.1,28.1,29.80,SSW,193,5.8,8.1,44,0.00,,,0.00,VWS V13.01,2013-03-06 21:19:00,
2013-03-06 13:24:00,49.1,31.3,29.80,North,1,2.2,8.7,50,0.00,,,0.00,VWS V13.01,2013-03-06 21:24:00,
2013-03-06 13:29:00,49.8,32.4,29.80,SW,220,4.9,5.8,51,0.00,,,0.00,VWS V13.01,2013-03-06 21:29:00,
2013-03-06 13:34:00,50.2,31.3,29.80,SSE,160,6.3,15.0,48,0.00,,,0.00,VWS V13.01,2013-03-06 21:34:00,
2013-03-06 13:39:00,50.9,31.4,29.80,NW,317,8.1,8.1,47,0.00,,,0.00,VWS V13.01,2013-03-06 21:39:00,
2013-03-06 13:44:00,50.7,29.6,29.80,SE,134,4.0,5.8,44,0.00,,,0.00,VWS V13.01,2013-03-06 21:44:00,
2013-03-06 13:49:00,51.3,29.5,29.80,WNW,295,3.1,5.8,43,0.00,,,0.00,VWS V13.01,2013-03-06 21:49:00,
2013-03-06 13:54:00,51.6,28.7,29.80,WNW,303,7.6,7.6,41,0.00,,,0.00,VWS V13.01,2013-03-06 21:54:00,
2013-03-06 13:59:00,50.9,27.5,29.80,NW,326,3.1,7.6,40,0.00,,,0.00,VWS V13.01,2013-03-06 21:59:00,
2013-03-06 14:04:00,50.2,27.4,29.83,NW,318,10.5,14.5,41,0.00,,,0.00,VWS V13.01,2013-03-06 22:04:00,
2013-03-06 14:09:00,49.3,27.2,29.83,WNW,298,8.3,8.7,42,0.00,,,0.00,VWS V13.01,2013-03-06 22:09:00,
2013-03-06 14:14:00,47.7,27.9,29.83,WSW,257,11.0,25.5,46,0.00,,,0.00,VWS V13.01,2013-03-06 22:14:00,
2013-03-06 14:19:00,47.3,29.1,29.83,WSW,249,8.3,10.1,49,0.00,,,0.00,VWS V13.01,2013-03-06 22:19:00,
2013-03-06 14:24:00,48.4,30.6,29.83,NW,325,5.8,8.3,50,0.00,,,0.00,VWS V13.01,2013-03-06 22:24:00,
2013-03-06 14:29:00,49.8,33.4,29.83,WNW,296,10.1,10.1,53,0.00,,,0.00,VWS V13.01,2013-03-06 22:29:00,
2013-03-06 14:34:00,50.2,31.8,29.83,South,191,6.7,15.0,49,0.00,,,0.00,VWS V13.01,2013-03-06 22:34:00,
2013-03-06 14:39:00,50.4,30.9,29.83,West,276,5.4,7.6,47,0.00,,,0.00,VWS V13.01,2013-03-06 22:39:00,
2013-03-06 14:44:00,50.5,30.5,29.83,WNW,300,3.6,10.1,46,0.00,,,0.00,VWS V13.01,2013-03-06 22:44:00,
2013-03-06 14:49:00,51.1,31.0,29.83,NW,324,4.9,4.9,46,0.00,,,0.00,VWS V13.01,2013-03-06 22:49:00,
2013-03-06 14:54:00,50.4,28.7,29.83,WNW,302,5.8,10.1,43,0.00,,,0.00,VWS V13.01,2013-03-06 22:54:00,
2013-03-06 14:59:00,49.6,28.1,29.83,WNW,283,10.1,11.9,43,0.00,,,0.00,VWS V13.01,2013-03-06 22:59:00,
2013-03-06 15:04:00,49.6,28.6,29.83,WSW,257,7.6,14.5,44,0.00,,,0.00,VWS V13.01,2013-03-06 23:04:00,
2013-03-06 15:09:00,50.4,28.2,29.83,North,357,5.8,8.3,42,0.00,,,0.00,VWS V13.01,2013-03-06 23:09:00,
2013-03-06 15:14:00,50.9,26.8,29.83,NW,313,8.1,8.1,39,0.00,,,0.00,VWS V13.01,2013-03-06 23:14:00,
2013-03-06 15:19:00,50.9,26.2,29.83,WNW,302,5.4,14.1,38,0.00,,,0.00,VWS V13.01,2013-03-06 23:19:00,
2013-03-06 15:24:00,51.4,26.7,29.83,NNW,328,6.3,6.3,38,0.00,,,0.00,VWS V13.01,2013-03-06 23:24:00,
2013-03-06 15:29:00,52.0,26.5,29.83,WNW,292,8.1,8.1,37,0.00,,,0.00,VWS V13.01,2013-03-06 23:29:00,
2013-03-06 15:34:00,51.6,26.2,29.83,NNW,331,8.1,9.2,37,0.00,,,0.00,VWS V13.01,2013-03-06 23:34:00,
2013-03-06 15:39:00,51.4,26.7,29.83,NW,315,4.5,6.3,38,0.00,,,0.00,VWS V13.01,2013-03-06 23:39:00,
2013-03-06 15:44:00,50.9,26.2,29.83,West,266,4.0,4.9,38,0.00,,,0.00,VWS V13.01,2013-03-06 23:44:00,
2013-03-06 15:49:00,50.9,26.8,29.85,NW,310,4.0,4.0,39,0.00,,,0.00,VWS V13.01,2013-03-06 23:49:00,
2013-03-06 15:54:00,50.7,27.3,29.85,South,178,6.3,6.3,40,0.00,,,0.00,VWS V13.01,2013-03-06 23:54:00,
2013-03-06 15:59:00,50.4,27.0,29.85,NW,325,8.3,8.3,40,0.00,,,0.00,VWS V13.01,2013-03-06 23:59:00,
2013-03-06 16:04:00,50.9,26.8,29.85,West,271,6.3,6.3,39,0.00,,,0.00,VWS V13.01,2013-03-07 00:04:00,
2013-03-06 16:09:00,51.3,26.5,29.85,West,267,8.3,8.3,38,0.00,,,0.00,VWS V13.01,2013-03-07 00:09:00,
2013-03-06 16:14:00,50.5,25.9,29.85,WNW,292,5.8,8.3,38,0.00,,,0.00,VWS V13.01,2013-03-07 00:14:00,
2013-03-06 16:19:00,49.6,25.7,29.85,West,272,6.7,6.7,39,0.00,,,0.00,VWS V13.01,2013-03-07 00:19:00,
2013-03-06 16:24:00,49.3,25.4,29.85,NW,304,4.0,5.4,39,0.00,,,0.00,VWS V13.01,2013-03-07 00:24:00,
2013-03-06 16:29:00,48.2,25.6,29.85,WNW,292,8.3,8.7,41,0.00,,,0.00,VWS V13.01,2013-03-07 00:29:00,
2013-03-06 16:34:00,47.7,27.4,29.85,NW,313,3.6,5.8,45,0.00,,,0.00,VWS V13.01,2013-03-07 00:34:00,
2013-03-06 16:39:00,47.3,29.1,29.85,NW,313,5.8,5.8,49,0.00,,,0.00,VWS V13.01,2013-03-07 00:39:00,
2013-03-06 16:44:00,47.3,29.1,29.85,West,276,5.8,6.3,49,0.00,,,0.00,VWS V13.01,2013-03-07 00:44:00,
2013-03-06 16:49:00,47.8,29.1,29.85,WSW,250,4.9,6.3,48,0.00,,,0.00,VWS V13.01,2013-03-07 00:49:00,
2013-03-06 16:54:00,47.5,28.3,29.85,SW,225,2.2,2.7,47,0.00,,,0.00,VWS V13.01,2013-03-07 00:54:00,
2013-03-06 16:59:00,47.3,28.1,29.85,SE,128,0.0,2.2,47,0.00,,,0.00,VWS V13.01,2013-03-07 00:59:00,
2013-03-06 17:04:00,47.1,28.5,29.85,NW,319,0.0,2.7,48,0.00,,,0.00,VWS V13.01,2013-03-07 01:04:00,
2013-03-06 17:09:00,46.9,28.8,29.85,SW,235,2.2,4.0,49,0.00,,,0.00,VWS V13.01,2013-03-07 01:09:00,
2013-03-06 17:14:00,46.9,28.8,29.85,WSW,238,0.0,2.7,49,0.00,,,0.00,VWS V13.01,2013-03-07 01:14:00,
2013-03-06 17:19:00,46.8,29.1,29.85,SSW,208,3.1,4.0,50,0.00,,,0.00,VWS V13.01,2013-03-07 01:19:00,
2013-03-06 17:24:00,46.6,29.4,29.85,SSE,166,8.7,8.7,51,0.00,,,0.00,VWS V13.01,2013-03-07 01:24:00,
2013-03-06 17:29:00,46.4,29.8,29.85,NNW,330,3.6,7.6,52,0.00,,,0.00,VWS V13.01,2013-03-07 01:29:00,
2013-03-06 17:34:00,46.2,29.6,29.85,SSW,204,4.5,4.5,52,0.00,,,0.00,VWS V13.01,2013-03-07 01:34:00,
2013-03-06 17:39:00,46.2,30.0,29.85,South,189,2.7,4.0,53,0.00,,,0.00,VWS V13.01,2013-03-07 01:39:00,
2013-03-06 17:44:00,46.0,29.9,29.85,SSW,208,2.2,2.7,53,0.00,,,0.00,VWS V13.01,2013-03-07 01:44:00,
2013-03-06 17:49:00,46.0,29.9,29.85,SSW,198,0.0,0.0,53,0.00,,,0.00,VWS V13.01,2013-03-07 01:49:00,
2013-03-06 17:54:00,45.9,29.7,29.85,SSW,203,0.0,0.0,53,0.00,,,0.00,VWS V13.01,2013-03-07 01:54:00,
2013-03-06 17:59:00,46.0,30.3,29.85,SSW,202,2.7,3.1,54,0.00,,,0.00,VWS V13.01,2013-03-07 01:59:00,
2013-03-06 18:04:00,45.7,30.0,29.88,SW,234,3.6,3.6,54,0.00,,,0.00,VWS V13.01,2013-03-07 02:04:00,
2013-03-06 18:09:00,45.5,30.3,29.88,WNW,292,0.0,0.0,55,0.00,,,0.00,VWS V13.01,2013-03-07 02:09:00,
2013-03-06 18:14:00,45.5,30.3,29.88,NW,309,0.0,0.0,55,0.00,,,0.00,VWS V13.01,2013-03-07 02:14:00,
2013-03-06 18:19:00,45.5,30.7,29.88,NNW,337,4.0,4.0,56,0.00,,,0.00,VWS V13.01,2013-03-07 02:19:00,
2013-03-06 18:24:00,45.5,31.2,29.88,SSW,197,2.7,3.6,57,0.00,,,0.00,VWS V13.01,2013-03-07 02:24:00,
2013-03-06 18:29:00,45.3,31.4,29.88,SW,214,0.0,0.0,58,0.00,,,0.00,VWS V13.01,2013-03-07 02:29:00,
2013-03-06 18:34:00,45.3,31.9,29.88,SSW,200,4.0,5.4,59,0.00,,,0.00,VWS V13.01,2013-03-07 02:34:00,
2013-03-06 18:39:00,45.3,31.9,29.88,West,272,0.0,0.0,59,0.00,,,0.00,VWS V13.01,2013-03-07 02:39:00,
2013-03-06 18:44:00,45.1,31.7,29.88,NW,314,3.1,3.1,59,0.00,,,0.00,VWS V13.01,2013-03-07 02:44:00,
2013-03-06 18:49:00,45.3,32.3,29.91,West,280,4.0,4.0,60,0.00,,,0.00,VWS V13.01,2013-03-07 02:49:00,
2013-03-06 18:54:00,45.1,32.1,29.91,WNW,284,2.7,2.7,60,0.00,,,0.00,VWS V13.01,2013-03-07 02:54:00,
2013-03-06 18:59:00,45.0,32.3,29.91,NNW,330,0.0,2.2,61,0.00,,,0.00,VWS V13.01,2013-03-07 02:59:00,
2013-03-06 19:04:00,44.8,32.6,29.91,NNW,337,2.7,2.7,62,0.00,,,0.00,VWS V13.01,2013-03-07 03:04:00,
2013-03-06 19:09:00,44.8,33.0,29.91,WSW,248,0.0,2.7,63,0.00,,,0.00,VWS V13.01,2013-03-07 03:09:00,
2013-03-06 19:14:00,44.6,33.2,29.91,SW,226,2.7,2.7,64,0.00,,,0.00,VWS V13.01,2013-03-07 03:14:00,
2013-03-06 19:19:00,44.4,33.4,29.91,WSW,249,0.0,0.0,65,0.00,,,0.00,VWS V13.01,2013-03-07 03:19:00,
2013-03-06 19:24:00,44.4,33.8,29.91,SSW,200,0.0,4.0,66,0.00,,,0.00,VWS V13.01,2013-03-07 03:24:00,
2013-03-06 19:29:00,44.4,33.8,29.91,West,276,4.9,5.8,66,0.00,,,0.00,VWS V13.01,2013-03-07 03:29:00,
2013-03-06 19:34:00,44.4,34.2,29.91,SSW,207,0.0,0.0,67,0.00,,,0.00,VWS V13.01,2013-03-07 03:34:00,
2013-03-06 19:39:00,44.4,34.5,29.91,SSW,207,0.0,2.7,68,0.00,,,0.00,VWS V13.01,2013-03-07 03:39:00,
2013-03-06 19:44:00,44.4,34.9,29.91,WNW,291,4.9,8.1,69,0.00,,,0.00,VWS V13.01,2013-03-07 03:44:00,
2013-03-06 19:49:00,44.4,35.3,29.91,SW,235,0.0,2.2,70,0.00,,,0.00,VWS V13.01,2013-03-07 03:49:00,
2013-03-06 19:54:00,44.4,35.3,29.91,SW,232,0.0,0.0,70,0.00,,,0.00,VWS V13.01,2013-03-07 03:54:00,
2013-03-06 19:59:00,44.4,35.3,29.91,WSW,254,4.0,4.0,70,0.00,,,0.00,VWS V13.01,2013-03-07 03:59:00,
2013-03-06 20:04:00,44.4,35.6,29.91,South,182,4.9,4.9,71,0.00,,,0.00,VWS V13.01,2013-03-07 04:04:00,
2013-03-06 20:09:00,44.4,35.6,29.91,SW,226,3.1,3.1,71,0.00,,,0.00,VWS V13.01,2013-03-07 04:09:00,
2013-03-06 20:14:00,44.4,35.6,29.91,SW,229,2.7,2.7,71,0.00,,,0.00,VWS V13.01,2013-03-07 04:14:00,
2013-03-06 20:19:00,44.4,36.0,29.94,WSW,254,3.6,3.6,72,0.00,,,0.00,VWS V13.01,2013-03-07 04:19:00,
2013-03-06 20:24:00,44.4,36.0,29.94,SSW,213,2.2,2.7,72,0.00,,,0.00,VWS V13.01,2013-03-07 04:24:00,
2013-03-06 20:29:00,44.4,36.0,29.94,WSW,257,2.2,2.2,72,0.00,,,0.00,VWS V13.01,2013-03-07 04:29:00,
2013-03-06 20:34:00,44.4,36.0,29.94,SW,229,2.2,2.2,72,0.00,,,0.00,VWS V13.01,2013-03-07 04:34:00,
2013-03-06 20:39:00,44.2,35.8,29.94,WNW,289,0.0,2.2,72,0.00,,,0.00,VWS V13.01,2013-03-07 04:39:00,
2013-03-06 20:44:00,44.2,35.8,29.94,SSW,199,6.3,6.3,72,0.00,,,0.00,VWS V13.01,2013-03-07 04:44:00,
2013-03-06 20:49:00,44.1,35.6,29.94,NNW,341,0.0,0.0,72,0.00,,,0.00,VWS V13.01,2013-03-07 04:49:00,
2013-03-06 20:54:00,44.1,35.6,29.94,WSW,240,3.6,3.6,72,0.00,,,0.00,VWS V13.01,2013-03-07 04:54:00,
2013-03-06 20:59:00,43.9,34.7,29.94,NE,37,4.5,4.5,70,0.00,,,0.00,VWS V13.01,2013-03-07 04:59:00,
2013-03-06 21:00:00,43.9,34.7,29.94,WSW,243,2.7,6.3,70,0.00,,,0.00,VWS V13.01,2013-03-07 05:00:00,
2013-03-06 21:05:00,44.1,34.6,29.94,SSE,149,4.0,4.0,69,0.00,,,0.00,VWS V13.01,2013-03-07 05:05:00,
2013-03-06 21:10:00,43.9,34.4,29.94,SW,223,0.0,2.2,69,0.00,,,0.00,VWS V13.01,2013-03-07 05:10:00,
2013-03-06 21:15:00,43.9,34.4,29.94,SW,236,0.0,0.0,69,0.00,,,0.00,VWS V13.01,2013-03-07 05:15:00,
2013-03-06 21:20:00,43.9,34.4,29.94,SW,236,0.0,0.0,69,0.00,,,0.00,VWS V13.01,2013-03-07 05:20:00,
2013-03-06 21:25:00,43.9,34.7,29.94,WNW,295,7.6,7.6,70,0.00,,,0.00,VWS V13.01,2013-03-07 05:25:00,
2013-03-06 21:30:00,43.9,34.7,29.94,WSW,250,2.7,3.1,70,0.00,,,0.00,VWS V13.01,2013-03-07 05:30:00,
2013-03-06 21:35:00,43.7,34.9,29.94,SSW,210,0.0,2.2,71,0.00,,,0.00,VWS V13.01,2013-03-07 05:35:00,
2013-03-06 21:40:00,43.7,34.9,29.94,SW,222,2.7,4.0,71,0.00,,,0.00,VWS V13.01,2013-03-07 05:40:00,
2013-03-06 21:45:00,43.7,35.3,29.94,SSE,155,3.1,3.1,72,0.00,,,0.00,VWS V13.01,2013-03-07 05:45:00,
2013-03-06 21:50:00,43.7,35.3,29.97,SSE,167,3.1,4.0,72,0.00,,,0.00,VWS V13.01,2013-03-07 05:50:00,
2013-03-06 21:55:00,43.7,35.3,29.97,South,188,2.2,4.9,72,0.00,,,0.00,VWS V13.01,2013-03-07 05:55:00,
2013-03-06 22:00:00,43.5,35.1,29.97,SSW,206,3.1,4.0,72,0.00,,,0.00,VWS V13.01,2013-03-07 06:00:00,
2013-03-06 22:05:00,43.5,35.1,29.94,South,187,2.2,2.2,72,0.00,,,0.00,VWS V13.01,2013-03-07 06:05:00,
2013-03-06 22:10:00,43.3,34.6,29.94,SSW,201,5.8,5.8,71,0.00,,,0.00,VWS V13.01,2013-03-07 06:10:00,
2013-03-06 22:15:00,43.3,34.2,29.94,SSW,194,4.9,6.3,70,0.00,,,0.00,VWS V13.01,2013-03-07 06:15:00,
2013-03-06 22:20:00,43.0,33.5,29.94,WSW,237,0.0,0.0,69,0.00,,,0.00,VWS V13.01,2013-03-07 06:20:00,
2013-03-06 22:25:00,42.8,33.0,29.94,SSW,197,4.0,4.0,68,0.00,,,0.00,VWS V13.01,2013-03-07 06:25:00,
2013-03-06 22:30:00,42.8,32.6,29.94,South,184,2.7,3.1,67,0.00,,,0.00,VWS V13.01,2013-03-07 06:30:00,
2013-03-06 22:35:00,42.6,32.4,29.97,South,182,3.6,3.6,67,0.00,,,0.00,VWS V13.01,2013-03-07 06:35:00,
2013-03-06 22:40:00,42.4,32.3,29.97,South,188,2.2,4.0,67,0.00,,,0.00,VWS V13.01,2013-03-07 06:40:00,
2013-03-06 22:45:00,42.4,31.9,29.97,SSW,201,3.6,3.6,66,0.00,,,0.00,VWS V13.01,2013-03-07 06:45:00,
2013-03-06 22:50:00,42.3,31.7,29.97,SSW,197,3.1,3.1,66,0.00,,,0.00,VWS V13.01,2013-03-07 06:50:00,
2013-03-06 22:55:00,42.3,31.7,29.97,South,191,2.7,3.6,66,0.00,,,0.00,VWS V13.01,2013-03-07 06:55:00,
2013-03-06 23:00:00,42.1,31.6,29.97,SSW,204,0.0,0.0,66,0.00,,,0.00,VWS V13.01,2013-03-07 07:00:00,
2013-03-06 23:05:00,41.9,31.4,29.97,WSW,243,4.0,6.3,66,0.00,,,0.00,VWS V13.01,2013-03-07 07:05:00,
2013-03-06 23:10:00,41.9,31.4,29.97,WSW,239,2.7,2.7,66,0.00,,,0.00,VWS V13.01,2013-03-07 07:10:00,
2013-03-06 23:15:00,41.9,31.0,29.97,SSW,196,2.2,3.1,65,0.00,,,0.00,VWS V13.01,2013-03-07 07:15:00,
2013-03-06 23:20:00,41.7,30.8,29.97,South,181,0.0,0.0,65,0.00,,,0.00,VWS V13.01,2013-03-07 07:20:00,
2013-03-06 23:25:00,41.7,30.8,29.97,South,190,0.0,3.1,65,0.00,,,0.00,VWS V13.01,2013-03-07 07:25:00,
2013-03-06 23:30:00,41.7,30.5,29.97,SW,225,0.0,2.2,64,0.00,,,0.00,VWS V13.01,2013-03-07 07:30:00,
2013-03-06 23:35:00,41.7,30.1,29.97,SSW,201,3.1,3.1,63,0.00,,,0.00,VWS V13.01,2013-03-07 07:35:00,
2013-03-06 23:40:00,41.7,29.7,29.97,SSW,208,3.1,5.8,62,0.00,,,0.00,VWS V13.01,2013-03-07 07:40:00,
2013-03-06 23:46:00,41.5,29.1,29.97,SSE,168,3.1,3.6,61,0.00,,,0.00,VWS V13.01,2013-03-07 07:46:00,
2013-03-06 23:51:00,41.5,29.1,29.97,South,169,0.0,0.0,61,0.00,,,0.00,VWS V13.01,2013-03-07 07:51:00,
2013-03-06 23:56:00,41.5,29.1,29.97,South,169,0.0,3.1,61,0.00,,,0.00,VWS V13.01,2013-03-07 07:56:00,